Погода в Сухоное

Россия / Красноярский край     55°36′37″N   94°10′08″E
темп.,
°C
ветер,
м/с
пор.,
м/с
влажн.,
%
обл.,
%
осадки,
мм/ч
давл.,
гПа
погр.,
м
6 марта, сб
сб601:00−6зюз7177783 0.0 1021947
04:00−6юз61677100 0.0 1020972
07:00−6зюз101985100 0.3 10201458
10:00−4зюз101782100 0.1 10201414
13:00−3зюз101680100 0.1 10191389
16:00−2юз71475100 0.0 10171244
19:00−4юз51576100 0.0 1016509
22:00−4юз61773100 0.0 1014651
7 марта, вс
вс701:00−4юз61871100 0.0 1013808
04:00−3зюз71771100 0.0 1011980
07:00−3юз81773100 0.0 1013787
10:00−2зюз81480100 0.0 10121074
13:00−2зюз91583100 0.1 10131461
16:00−2зюз81479100 0.1 10141423
19:00−6зсз51190100 0.3 1017461
22:00−8з51388100 0.0 1020695
8 марта, пн
пн801:00−10з41184100 0.0 1022251
04:00−13зюз5108226 0.0 1024173
07:00−15юз348022 0.0 102753
10:00−9ююз237531 0.0 1026161
13:00−4вюв348116 0.0 1022408
16:00−4вюв579059 0.0 1018348
19:00−6юв349580 0.0 101588
22:00−5ю2389100 0.0 101326
9 марта, вт
вт901:000юз61778100 0.0 1012895
04:000зюз8177683 0.0 10121026
07:00−3зюз7168259 0.1 1015871
10:00−3з9148891 0.1 10181297
13:00−4з10176896 0.3 10211512
16:00−4з8157060 0.0 10231304
19:00−8з4107932 0.0 1025161
22:00−11зюз338227 0.0 102626
10 марта, ср
ср1001:00−13ююз227441 0.0 102421
04:00−12ююв238577 0.0 102223
07:00−10ююв238788 0.0 102021
10:00−2юз288065 0.0 1017351
13:00+1зюз31010082 0.0 1015674
16:00+1зюз4109552 0.0 1015794
19:00−2юз458428 0.0 101581
22:00−4ююз238472 0.0 101526